EW9532 Weather Reports


time (UTC)temp
C
wind
direction
speed
KPH
gust
KPH
rain 1hr
cm
rain 24hr
cm
rain mn
cm
humidity
%
barometer
mb
20260509035429 26 47 1.6 8.0 0.00 0.51 0.48 83 1009.5
20260509034929 26 221 0.0 8.0 0.00 0.51 0.48 83 1009.5
20260509034547 26 0 1.6 9.7 0.00 0.51 0.48 82 1009.8
20260509034429 26 143 1.6 8.0 0.00 0.51 0.48 82 1009.6
20260509033929 27 150 0.0 8.0 0.00 0.51 0.48 82 1009.7
20260509033429 27 347 0.0 8.0 0.00 0.51 0.48 82 1009.6
20260509033105 27 0 0.0 9.7 0.00 0.51 0.48 81 1010.0
20260509032928 27 341 0.0 4.8 0.00 0.51 0.48 81 1009.7
20260509032431 27 278 0.0 8.0 0.00 0.51 0.48 81 1009.3
20260509032155 27 199 0.0 8.0 0.00 0.51 0.48 81 1009.0
20260509031547 27 179 0.0 9.7 0.00 0.51 0.48 80 1009.1
20260509031430 27 96 0.0 11.3 0.00 0.51 0.48 80 1008.7
20260509031223 27 354 3.2 11.3 0.00 0.51 0.48 80 1008.7
20260509030650 27 142 3.2 8.0 0.00 0.51 0.48 80 1008.7
20260509030053 27 146 0.0 8.0 0.00 0.51 0.48 79 1009.0
20260509025928 27 257 0.0 4.8 0.00 0.51 0.48 80 1008.8
20260509025429 27 323 0.0 4.8 0.00 0.51 0.48 79 1008.8
20260509024929 28 328 0.0 8.0 0.00 0.51 0.48 79 1008.7
20260509024557 27 301 0.0 11.3 0.00 0.51 0.48 78 1008.9
20260509024445 28 110 0.0 11.3 0.00 0.51 0.48 78 1008.8
20260509024436 28 262 0.0 11.3 0.00 0.51 0.48 78 1008.8
20260509023429 28 154 0.0 6.4 0.00 0.51 0.48 78 1008.7
20260509023154 28 112 1.6 6.4 0.00 0.51 0.48 77 1008.7
20260509023051 28 0 0.0 6.4 0.00 0.51 0.48 77 1009.0
20260509022431 28 176 0.0 4.8 0.00 0.51 0.48 77 1008.6
20260509021931 28 356 0.0 0.0 0.00 0.51 0.48 77 1008.6
20260509021548 28 0 0.0 1.6 0.00 0.51 0.48 76 1008.8
20260509021431 28 252 0.0 1.6 0.00 0.51 0.48 76 1008.6
20260509020931 28 252 0.0 1.6 0.00 0.51 0.48 76 1008.3
20260509020720 29 237 0.0 9.7 0.00 0.51 0.48 75 1008.3
20260509020047 28 0 0.0 9.7 0.00 0.51 0.48 75 1008.7
20260509015930 29 248 1.6 9.7 0.00 0.51 0.48 75 1008.4
20260509015656 29 356 1.6 11.3 0.00 0.51 0.48 75 1008.5
20260509014928 29 34 3.2 11.3 0.00 0.51 0.48 74 1008.4
20260509014650 29 182 0.0 8.0 0.00 0.51 0.48 74 1008.1
20260509014550 29 278 0.0 6.4 0.00 0.51 0.48 74 1008.4
20260509013922 30 41 0.0 6.4 0.00 0.51 0.48 75 1007.7
20260509013710 30 26 0.0 8.0 0.00 0.51 0.48 74 1007.7
20260509013055 29 0 0.0 11.3 0.00 0.51 0.48 74 1008.0
20260509012913 30 104 1.6 12.9 0.00 0.51 0.48 74 1007.6
20260509012638 30 66 0.0 12.9 0.00 0.51 0.48 74 1007.5
20260509011913 30 277 0.0 11.3 0.00 0.51 0.48 74 1007.4
20260509011601 29 0 0.0 11.3 0.00 0.51 0.48 74 1007.6
20260509011411 30 41 1.6 11.3 0.00 0.51 0.48 74 1007.4
20260509010911 30 215 1.6 9.7 0.00 0.51 0.48 74 1007.1
20260509010409 30 250 1.6 9.7 0.00 0.51 0.48 75 1007.0
20260509010047 30 0 0.0 9.7 0.00 0.51 0.48 74 1007.2
20260509005905 30 191 1.6 8.0 0.00 0.51 0.48 75 1006.9
20260509005401 30 288 0.0 8.0 0.00 0.51 0.48 75 1006.8
20260509005124 30 334 0.0 8.0 0.00 0.51 0.48 75 1006.9
20260509004555 30 324 1.6 8.0 0.00 0.51 0.48 75 1007.3
20260509004401 30 285 1.6 8.0 0.00 0.51 0.48 76 1007.2
20260509003901 30 293 0.0 4.8 0.00 0.51 0.48 77 1007.3
20260509003402 30 233 0.0 4.8 0.00 0.51 0.48 77 1007.3
20260509003150 30 131 0.0 8.0 0.00 0.51 0.48 77 1007.1
20260509003051 30 0 0.0 9.7 0.00 0.51 0.48 76 1007.5
20260509002401 30 131 0.0 8.0 0.00 0.51 0.48 76 1007.0
20260509002124 30 337 0.0 8.0 0.00 0.51 0.48 75 1007.3
20260509001553 30 273 0.0 8.0 0.00 0.51 0.48 74 1007.5
20260509001402 30 149 1.6 8.0 0.00 0.51 0.48 74 1007.2
20260509000902 31 221 0.0 6.4 0.00 0.51 0.48 73 1007.0
20260509000627 31 341 0.0 6.4 0.00 0.51 0.48 74 1007.1
20260509000050 30 0 0.0 6.4 0.00 0.51 0.48 73 1007.3
20260508235902 30 336 0.0 6.4 0.00 0.51 0.48 73 1007.0
20260508235402 31 305 0.0 1.6 0.00 0.51 0.48 73 1007.0
20260508234903 31 217 0.0 3.2 0.00 0.51 0.48 73 1007.1
20260508234547 31 0 0.0 3.2 0.00 0.51 0.48 72 1007.4
20260508234402 31 125 0.0 3.2 0.00 0.51 0.48 72 1007.1
20260508233903 31 142 0.0 0.0 0.00 0.51 0.48 72 1007.2
20260508233403 31 142 0.0 0.0 0.00 0.51 0.48 72 1007.3
20260508233049 30 0 0.0 0.0 0.00 0.51 0.48 71 1007.6
20260508232900 31 142 0.0 1.6 0.00 0.51 0.48 72 1007.3
20260508232400 31 142 0.0 1.6 0.00 0.51 0.48 72 1007.4
20260508231901 31 303 0.0 1.6 0.00 0.51 0.48 72 1007.4
20260508231631 31 328 0.0 1.6 0.00 0.51 0.48 72 1007.3
20260508231553 30 0 0.0 1.6 0.00 0.51 0.48 72 1007.5
20260508231126 30 302 0.0 1.6 0.00 0.51 0.48 72 1007.3
20260508230624 30 302 0.0 1.6 0.00 0.51 0.48 72 1007.3
20260508230050 30 0 0.0 1.6 0.00 0.51 0.48 72 1007.6
20260508225901 30 6 0.0 1.6 0.00 0.51 0.48 73 1007.3
20260508225401 30 95 0.0 3.2 0.00 0.51 0.48 73 1007.2
20260508224901 31 354 0.0 3.2 0.00 0.51 0.48 72 1007.2
20260508224609 30 314 0.0 0.0 0.00 0.51 0.48 72 1007.4
20260508224401 31 32 0.0 1.6 0.00 0.51 0.48 72 1007.3
20260508223901 31 252 0.0 1.6 0.00 0.51 0.48 72 1007.3
20260508223401 31 252 0.0 6.4 0.00 0.51 0.48 72 1007.3
20260508223127 31 8 0.0 6.4 0.00 0.51 0.48 71 1007.3
20260508223052 30 0 0.0 6.4 0.00 0.51 0.48 71 1007.5
20260508222400 31 26 0.0 6.4 0.00 0.51 0.48 72 1007.6
20260508221902 31 259 0.0 4.8 0.00 0.51 0.48 72 1007.5
20260508221602 30 0 0.0 3.2 0.00 0.51 0.48 71 1008.0
20260508221415 31 176 0.0 4.8 0.00 0.51 0.48 72 1007.6
20260508220902 31 96 0.0 1.6 0.00 0.51 0.48 71 1007.6
20260508220402 31 199 0.0 1.6 0.00 0.51 0.48 71 1007.8
20260508220049 30 0 0.0 1.6 0.00 0.51 0.48 71 1007.9
20260508215901 31 56 0.0 1.6 0.00 0.51 0.48 71 1007.7
20260508215400 31 56 0.0 1.6 0.00 0.51 0.48 70 1007.8
20260508214901 31 116 0.0 1.6 0.00 0.51 0.48 69 1007.9
20260508214551 31 0 0.0 0.0 0.00 0.51 0.48 70 1008.4
20260508214401 31 295 0.0 0.0 0.00 0.51 0.48 70 1008.2
20260508213901 31 295 0.0 1.6 0.00 0.51 0.48 70 1008.2
20260508213627 31 295 0.0 6.4 0.00 0.51 0.48 69 1008.3
20260508213123 31 199 0.0 6.4 0.00 0.51 0.48 70 1008.4
20260508213049 31 0 0.0 6.4 0.00 0.51 0.48 69 1008.7
20260508212400 31 270 0.0 0.0 0.00 0.51 0.48 69 1008.5
20260508211901 31 270 0.0 0.0 0.00 0.51 0.48 69 1008.8
20260508211553 31 0 0.0 0.0 0.00 0.51 0.48 68 1009.0
20260508211401 31 270 0.0 0.0 0.00 0.51 0.48 69 1008.8
20260508210901 31 270 0.0 0.0 0.00 0.51 0.48 68 1008.8
20260508210402 32 270 0.0 0.0 0.00 0.51 0.48 67 1008.9
20260508210057 31 0 0.0 1.6 0.00 0.51 0.48 66 1009.1
20260508205902 32 270 0.0 1.6 0.00 0.51 0.48 66 1008.8
20260508205625 32 269 0.0 1.6 0.00 0.51 0.48 66 1008.9
20260508204901 32 270 0.0 0.0 0.00 0.51 0.48 69 1008.9
20260508204627 31 270 0.0 3.2 0.00 0.51 0.48 69 1008.8
20260508204547 31 0 0.0 4.8 0.00 0.51 0.48 69 1009.3
20260508203901 31 270 0.0 3.2 0.00 0.51 0.48 70 1009.2
20260508203401 31 15 0.0 0.0 0.00 0.51 0.48 69 1009.3
20260508203127 31 15 0.0 0.0 0.00 0.51 0.48 69 1009.3
20260508203059 31 0 0.0 0.0 0.00 0.51 0.48 69 1009.5
20260508202400 31 15 0.0 0.0 0.00 0.51 0.48 69 1009.4
20260508201901 31 15 0.0 0.0 0.00 0.51 0.48 69 1009.5
20260508201548 31 0 0.0 1.6 0.00 0.51 0.48 70 1009.8
20260508201400 31 290 0.0 0.0 0.00 0.51 0.48 71 1009.5
20260508200901 31 290 0.0 0.0 0.00 0.51 0.48 69 1009.6
20260508200401 31 259 0.0 3.2 0.00 0.51 0.48 70 1009.8
20260508200125 31 259 0.0 3.2 0.00 0.51 0.48 71 1009.9
20260508200105 31 0 0.0 3.2 0.00 0.51 0.48 70 1010.2
20260508195400 31 207 0.0 0.0 0.00 0.51 0.48 70 1010.0
20260508194902 32 221 0.0 0.0 0.00 0.51 0.48 71 1010.1
20260508194551 31 0 0.0 1.6 0.00 0.51 0.48 71 1010.3
20260508194354 31 221 0.0 1.6 0.00 0.51 0.48 74 1010.0
20260508194111 30 221 0.0 3.2 0.00 0.51 0.48 72 1010.2
20260508193344 31 31 0.0 3.2 0.00 0.51 0.48 74 1010.3
20260508193104 30 0 0.0 3.2 0.00 0.51 0.48 71 1010.6
20260508192843 31 90 0.0 0.0 0.00 0.51 0.48 73 1010.3
20260508192344 30 90 0.0 1.6 0.00 0.51 0.48 74 1010.4
20260508191841 30 38 0.0 1.6 0.00 0.51 0.48 75 1010.4
20260508191547 30 0 0.0 0.0 0.00 0.51 0.48 75 1010.7
20260508191341 30 143 0.0 1.6 0.00 0.51 0.48 76 1010.4
20260508190841 30 143 0.0 1.6 0.00 0.51 0.48 77 1010.4
20260508190339 29 122 0.0 0.0 0.00 0.51 0.48 77 1010.5
20260508190050 29 0 0.0 0.0 0.00 0.51 0.48 77 1010.9
20260508185836 30 122 0.0 0.0 0.00 0.51 0.48 76 1010.6
20260508185334 29 122 0.0 0.0 0.00 0.51 0.48 78 1010.8
20260508184830 28 122 0.0 1.6 0.00 0.51 0.48 80 1010.9
20260508184552 28 0 0.0 1.6 0.00 0.51 0.48 80 1011.2
20260508184329 28 122 0.0 1.6 0.00 0.51 0.48 80 1010.9
20260508183829 28 239 0.0 1.6 0.00 0.51 0.48 81 1011.0
20260508183327 28 281 0.0 0.0 0.00 0.51 0.48 81 1011.1
20260508183106 27 0 0.0 0.0 0.00 0.51 0.48 81 1011.4
20260508182827 28 212 0.0 0.0 0.00 0.51 0.48 81 1011.2
20260508182320 28 212 0.0 1.6 0.00 0.51 0.48 82 1011.6
20260508181819 27 86 0.0 1.6 0.00 0.51 0.48 83 1011.3
20260508181608 27 0 0.0 3.2 0.00 0.51 0.48 82 1011.6
20260508181312 27 274 0.0 4.8 0.00 0.51 0.48 84 1011.4
20260508180811 27 228 0.0 4.8 0.00 0.51 0.48 85 1011.4
20260508180310 26 276 0.0 6.4 0.00 0.51 0.48 86 1011.6
20260508180049 26 0 0.0 4.8 0.00 0.51 0.48 88 1011.8
20260508175805 26 276 0.0 6.4 0.00 0.51 0.48 90 1011.7
20260508175306 26 235 0.0 6.4 0.00 0.51 0.48 91 1011.8
20260508175246 25 27 1.6 6.4 0.00 0.51 0.48 93 1011.7
20260508174547 25 0 0.0 1.6 0.00 0.51 0.48 94 1012.0
20260508174303 25 27 0.0 1.6 0.00 0.51 0.48 95 1011.9
20260508173802 24 26 0.0 0.0 0.00 0.51 0.48 95 1011.9
20260508173302 24 26 0.0 0.0 0.00 0.51 0.48 95 1012.1
20260508173047 23 0 0.0 0.0 0.00 0.51 0.48 95 1012.3
20260508172802 24 26 0.0 0.0 0.00 0.51 0.48 96 1012.2
20260508172301 23 26 0.0 0.0 0.00 0.51 0.48 96 1012.4
20260508171800 23 26 0.0 3.2 0.00 0.51 0.48 97 1012.4
20260508171549 23 0 0.0 1.6 0.00 0.51 0.48 96 1012.7
20260508171301 23 26 0.0 3.2 0.00 0.51 0.48 96 1012.5
20260508171024 23 238 0.0 0.0 0.00 0.51 0.48 97 1012.5
20260508170532 23 238 0.0 0.0 0.00 0.51 0.48 97 1012.5
20260508170107 22 238 0.0 1.6 0.00 0.51 0.48 97 1012.7
20260508170050 22 0 0.0 1.6 0.00 0.51 0.48 96 1012.8
20260508165235 22 238 0.0 1.6 0.00 0.51 0.48 97 1012.8
20260508164731 22 197 0.0 0.0 0.00 0.51 0.48 97 1013.0
20260508164713 22 197 0.0 0.0 0.00 0.51 0.48 96 1013.1
20260508164553 22 0 0.0 0.0 0.00 0.51 0.48 96 1013.3
20260508163730 22 197 0.0 0.0 0.00 0.51 0.48 96 1013.1
20260508163229 22 197 0.0 0.0 0.00 0.51 0.48 96 1013.3
20260508163053 22 0 0.0 0.0 0.00 0.51 0.48 95 1013.5
20260508162729 23 197 0.0 0.0 0.00 0.51 0.48 96 1013.1
20260508162510 23 197 0.0 0.0 0.00 0.51 0.48 97 1012.9
20260508161939 23 197 0.0 0.0 0.00 0.51 0.48 97 1013.1
20260508161655 23 197 0.0 0.0 0.00 0.51 0.48 97 1013.0
20260508161550 22 0 0.0 0.0 0.00 0.51 0.48 96 1013.3
20260508161153 23 197 0.0 0.0 0.00 0.51 0.48 97 1013.0
20260508160425 23 197 0.0 0.0 0.00 0.51 0.48 97 1013.2
20260508160053 22 0 0.0 0.0 0.00 0.51 0.48 97 1013.4
20260508155706 23 197 0.0 0.0 0.00 0.51 0.48 97 1013.2
20260508155203 22 197 0.0 0.0 0.00 0.51 0.48 97 1013.3
20260508154701 22 197 0.0 0.0 0.00 0.51 0.48 97 1013.3
20260508154549 22 0 0.0 0.0 0.00 0.51 0.48 97 1013.5
20260508154201 22 197 0.0 0.0 0.00 0.51 0.48 97 1013.4
20260508153701 22 197 0.0 0.0 0.00 0.51 0.48 97 1013.3
20260508153200 22 197 0.0 0.0 0.00 0.51 0.48 97 1013.4
20260508153055 22 0 0.0 0.0 0.00 0.51 0.48 97 1013.7
20260508152701 22 197 0.0 0.0 0.00 0.51 0.48 97 1013.6
20260508152202 22 197 0.0 0.0 0.00 0.51 0.48 97 1013.5
20260508151700 22 197 0.0 0.0 0.00 0.51 0.48 97 1013.6
20260508151550 22 0 0.0 0.0 0.00 0.51 0.48 97 1013.7
20260508151201 22 197 0.0 0.0 0.00 0.51 0.48 97 1013.5
20260508150701 22 197 0.0 0.0 0.00 0.51 0.48 97 1013.6
20260508150201 22 197 0.0 0.0 0.00 0.51 0.48 97 1013.6
20260508150109 21 0 0.0 0.0 0.00 0.51 0.48 97 1013.6
20260508145701 22 197 0.0 0.0 0.00 0.51 0.48 97 1013.4
20260508145201 22 197 0.0 0.0 0.00 0.51 0.48 97 1013.3
20260508144701 21 197 0.0 0.0 0.00 0.51 0.48 97 1013.4
20260508144553 21 0 0.0 0.0 0.00 0.51 0.48 97 1013.7
20260508144203 22 197 0.0 0.0 0.00 0.51 0.48 97 1013.6
20260508143703 22 197 0.0 0.0 0.00 0.51 0.48 97 1013.3
20260508143202 21 197 0.0 0.0 0.00 0.51 0.48 97 1013.2
20260508143052 21 0 0.0 0.0 0.00 0.51 0.48 97 1013.4
20260508142702 21 197 0.0 0.0 0.00 0.51 0.48 97 1013.3
20260508142202 21 197 0.0 0.0 0.00 0.51 0.48 97 1013.3
20260508141922 21 197 0.0 0.0 0.00 0.51 0.48 97 1013.4
20260508141600 21 0 0.0 0.0 0.00 0.51 0.48 97 1013.6
20260508141201 21 197 0.0 0.0 0.00 0.51 0.48 97 1013.4
20260508140702 21 197 0.0 0.0 0.00 0.51 0.48 97 1013.3
20260508140201 21 197 0.0 0.0 0.00 0.51 0.48 97 1013.3
20260508140059 21 0 0.0 0.0 0.00 0.51 0.48 97 1013.3
20260508135927 21 197 0.0 0.0 0.00 0.51 0.48 97 1013.1
20260508135201 21 197 0.0 0.0 0.00 0.51 0.48 97 1013.2
20260508134701 21 197 0.0 0.0 0.00 0.51 0.48 97 1013.2
20260508134548 21 0 0.0 0.0 0.00 0.51 0.48 97 1013.5
20260508134202 21 197 0.0 0.0 0.00 0.51 0.48 97 1013.2
20260508133702 21 197 0.0 0.0 0.00 0.51 0.48 97 1013.3
20260508133202 21 197 0.0 0.0 0.00 0.51 0.48 97 1013.3
20260508133045 21 0 0.0 0.0 0.00 0.51 0.48 97 1013.5
20260508132702 21 197 0.0 0.0 0.00 0.51 0.48 97 1013.5
20260508132202 21 197 0.0 0.0 0.00 0.51 0.48 97 1013.4
20260508131702 21 197 0.0 0.0 0.00 0.51 0.48 97 1013.5
20260508131556 21 0 0.0 0.0 0.00 0.51 0.48 97 1013.6
20260508131202 21 197 0.0 0.0 0.00 0.51 0.48 97 1013.4
20260508130702 21 197 0.0 0.0 0.00 0.51 0.48 97 1013.5
20260508130202 21 197 0.0 0.0 0.00 0.51 0.48 97 1013.6
20260508130047 21 0 0.0 0.0 0.00 0.51 0.48 97 1013.8
20260508125922 21 197 0.0 0.0 0.00 0.51 0.48 97 1013.5
20260508125202 21 197 0.0 0.0 0.00 0.51 0.48 97 1013.5
20260508124701 21 191 0.0 0.0 0.00 0.51 0.48 97 1013.7
20260508124548 20 0 0.0 0.0 0.00 0.51 0.48 97 1013.8
20260508124201 21 191 0.0 0.0 0.00 0.51 0.48 97 1013.6
20260508123950 21 191 0.0 0.0 0.00 0.51 0.48 97 1013.5
20260508123201 21 191 0.0 0.0 0.00 0.51 0.48 97 1013.5
20260508123047 20 0 0.0 0.0 0.00 0.51 0.48 97 1013.6
20260508122919 21 191 0.0 0.0 0.00 0.51 0.48 97 1013.4
20260508122201 21 191 0.0 1.6 0.00 0.51 0.48 97 1013.3
20260508121701 21 191 0.0 1.6 0.00 0.51 0.48 97 1013.2
20260508121550 21 0 0.0 0.0 0.00 0.51 0.48 97 1013.3
20260508121201 21 207 0.0 0.0 0.03 0.51 0.48 97 1013.1
20260508120703 21 207 0.0 0.0 0.05 0.51 0.48 97 1012.9
20260508120202 21 288 0.0 1.6 0.08 0.51 0.48 97 1013.0
20260508120053 21 0 0.0 1.6 0.08 0.51 0.48 97 1013.2
20260508115702 21 288 0.0 1.6 0.10 0.43 0.48 97 1012.9
20260508115425 21 227 0.0 0.0 0.10 0.43 0.48 97 1012.8
20260508114702 21 227 0.0 0.0 0.10 0.43 0.48 97 1012.7
20260508114553 21 0 0.0 0.0 0.10 0.51 0.48 97 1013.0
20260508114202 21 227 0.0 0.0 0.10 0.43 0.48 97 1012.7
20260508113703 21 227 0.0 0.0 0.10 0.43 0.48 97 1012.9
20260508113202 21 227 0.0 0.0 0.10 0.43 0.48 97 1012.7
20260508113121 21 0 0.0 0.0 0.10 0.51 0.48 97 1012.9
20260508112702 21 227 0.0 0.0 0.10 0.43 0.48 97 1012.5
20260508112202 21 227 0.0 0.0 0.13 0.43 0.48 97 1012.6
20260508111702 21 227 0.0 0.0 0.13 0.43 0.48 97 1012.4
20260508111550 21 0 0.0 0.0 0.13 0.51 0.48 97 1012.5
20260508111421 21 227 0.0 0.0 0.13 0.43 0.46 97 1012.5
20260508110701 21 227 0.0 0.0 0.10 0.43 0.43 97 1012.8
20260508110201 21 227 0.0 0.0 0.10 0.43 0.41 97 1012.9
20260508110049 21 0 0.0 0.0 0.10 0.43 0.41 96 1013.1
20260508105701 21 227 0.0 0.0 0.10 0.33 0.38 97 1013.2
20260508105201 21 227 0.0 1.6 0.13 0.33 0.38 97 1013.4
20260508104701 21 227 0.0 1.6 0.13 0.33 0.38 97 1013.3
20260508104555 21 0 0.0 1.6 0.13 0.41 0.38 96 1013.6
20260508104200 21 256 0.0 0.0 0.13 0.33 0.38 97 1013.2
20260508103925 21 256 0.0 0.0 0.13 0.33 0.38 97 1013.1
20260508103202 21 256 0.0 3.2 0.13 0.33 0.38 97 1012.9
20260508103103 21 0 0.0 3.2 0.13 0.41 0.38 96 1013.1
20260508102703 21 256 0.0 3.2 0.13 0.33 0.38 97 1012.8
20260508102202 21 304 0.0 0.0 0.10 0.33 0.36 97 1012.6
20260508101702 21 304 0.0 0.0 0.10 0.33 0.36 97 1012.6
20260508101551 21 0 0.0 0.0 0.10 0.38 0.36 97 1012.8
20260508101202 21 304 0.0 0.0 0.08 0.33 0.33 97 1012.1
20260508100703 21 304 0.0 0.0 0.08 0.33 0.33 97 1012.2
20260508100202 21 304 0.0 0.0 0.05 0.33 0.30 97 1012.3
20260508100052 21 0 0.0 0.0 0.05 0.33 0.30 96 1012.7
20260508095703 21 304 0.0 1.6 0.03 0.28 0.28 97 1012.6
20260508095202 21 304 0.0 1.6 0.00 0.28 0.25 97 1013.0
20260508094702 21 132 0.0 0.0 0.00 0.28 0.25 97 1012.9
20260508094552 21 0 0.0 0.0 0.00 0.28 0.25 96 1013.2
20260508094151 21 132 0.0 0.0 0.00 0.28 0.25 97 1012.9
20260508093651 22 132 0.0 0.0 0.00 0.28 0.25 97 1013.0
20260508093144 22 132 0.0 0.0 0.00 0.28 0.25 97 1013.1
20260508093056 21 0 0.0 0.0 0.00 0.28 0.25 96 1013.2
20260508092637 22 132 0.0 0.0 0.00 0.28 0.25 97 1012.9
20260508092136 22 132 0.0 0.0 0.00 0.28 0.25 97 1012.8
20260508091636 22 132 0.0 0.0 0.00 0.28 0.25 97 1012.6
20260508091549 22 0 0.0 0.0 0.00 0.28 0.25 96 1012.7
20260508091130 22 132 0.0 0.0 0.00 0.28 0.25 97 1012.6
20260508090631 22 132 0.0 0.0 0.00 0.28 0.25 97 1012.4
20260508090131 22 132 0.0 0.0 0.00 0.28 0.25 97 1012.1
20260508090115 22 132 0.0 0.0 0.00 0.28 0.25 97 1012.1
20260508090051 22 0 0.0 0.0 0.00 0.28 0.25 96 1012.3
20260508085130 22 132 0.0 0.0 0.00 0.28 0.25 97 1012.2
20260508084630 22 185 0.0 0.0 0.00 0.28 0.25 97 1012.2
20260508084555 22 0 0.0 0.0 0.00 0.28 0.25 96 1012.3
20260508084130 22 185 0.0 0.0 0.00 0.28 0.25 97 1012.3
20260508083629 22 185 0.0 0.0 0.00 0.28 0.25 97 1012.4
20260508083129 22 185 0.0 0.0 0.00 0.28 0.25 97 1012.1
20260508083052 22 0 0.0 0.0 0.00 0.28 0.25 96 1012.4
20260508082630 23 185 0.0 0.0 0.00 0.28 0.25 97 1012.3
20260508082129 23 185 0.0 0.0 0.00 0.28 0.25 97 1012.5
20260508081629 23 185 0.0 0.0 0.00 0.28 0.25 97 1012.6
20260508081556 22 0 0.0 0.0 0.00 0.28 0.25 96 1012.8
20260508081129 23 185 0.0 0.0 0.00 0.28 0.25 97 1012.9
20260508080628 23 185 0.0 0.0 0.00 0.28 0.25 97 1013.2
20260508080130 23 185 0.0 0.0 0.00 0.28 0.25 97 1013.3
20260508080049 22 0 0.0 0.0 0.00 0.28 0.25 97 1013.4
20260508075629 23 185 0.0 0.0 0.00 0.28 0.25 97 1013.3
20260508075129 23 185 0.0 0.0 0.00 0.28 0.25 97 1013.1
20260508074629 23 185 0.0 0.0 0.00 0.28 0.25 97 1013.1
20260508074550 22 0 0.0 0.0 0.00 0.28 0.25 96 1013.2
20260508074147 23 185 0.0 0.0 0.00 0.28 0.25 97 1012.8
20260508074135 23 185 0.0 0.0 0.00 0.28 0.25 97 1013.0
20260508073130 23 185 0.0 0.0 0.00 0.28 0.25 97 1012.7
20260508073048 22 0 0.0 0.0 0.00 0.28 0.25 96 1012.9
20260508072630 23 185 0.0 0.0 0.03 0.28 0.25 97 1012.5
20260508072131 23 185 0.0 0.0 0.03 0.28 0.25 97 1012.6
20260508071631 23 185 0.0 0.0 0.05 0.28 0.25 97 1012.5
20260508071553 22 0 0.0 0.0 0.05 0.28 0.25 96 1012.8
20260508071131 22 185 0.0 0.0 0.08 0.28 0.25 97 1013.0
20260508070629 22 185 0.0 0.0 0.10 0.28 0.25 97 1013.3
20260508070129 22 185 0.0 3.2 0.13 0.28 0.25 97 1013.5
20260508070054 22 0 0.0 1.6 0.13 0.28 0.25 96 1013.7
20260508065629 22 185 0.0 3.2 0.18 0.13 0.25 97 1013.7
20260508065129 22 33 0.0 1.6 0.18 0.13 0.25 97 1013.6
20260508064628 22 252 0.0 1.6 0.20 0.13 0.25 97 1013.5
20260508064606 22 0 0.0 1.6 0.20 0.28 0.25 96 1013.7
20260508064128 22 269 0.0 1.6 0.20 0.13 0.25 97 1013.5
20260508063628 22 296 0.0 1.6 0.20 0.13 0.25 97 1013.7
20260508063129 22 294 0.0 0.0 0.23 0.13 0.25 97 1013.9
20260508063048 22 0 0.0 0.0 0.23 0.28 0.25 96 1014.0
20260508062850 22 294 0.0 0.0 0.20 0.13 0.23 96 1014.0
20260508062623 22 294 0.0 0.0 0.20 0.13 0.23 96 1013.8
20260508061629 22 294 0.0 0.0 0.18 0.13 0.20 96 1013.5
20260508061557 22 0 0.0 0.0 0.18 0.23 0.20 96 1013.8
20260508061128 22 294 0.0 0.0 0.15 0.13 0.18 96 1013.9
20260508060629 22 294 0.0 0.0 0.15 0.13 0.15 96 1014.3
20260508060131 22 294 0.0 0.0 0.13 0.13 0.10 96 1014.8
20260508060050 22 0 0.0 0.0 0.10 0.13 0.10 96 1015.1
20260508055919 22 294 0.0 0.0 0.08 0.03 0.08 96 1015.2
20260508055131 22 294 0.0 0.0 0.08 0.03 0.05 96 1015.6
20260508054631 22 294 0.0 0.0 0.05 0.03 0.05 96 1015.9
20260508054617 22 0 0.0 0.0 0.05 0.08 0.05 96 1016.2
20260508054130 22 294 0.0 0.0 0.05 0.03 0.05 96 1016.1
20260508053629 22 294 0.0 0.0 0.05 0.03 0.05 96 1016.1
20260508053129 22 294 0.0 0.0 0.03 0.03 0.03 96 1016.0
20260508053050 22 0 0.0 0.0 0.03 0.05 0.03 96 1016.3
20260508052629 22 294 0.0 0.0 0.03 0.03 0.03 96 1015.8
20260508052129 22 294 0.0 0.0 0.03 0.03 0.03 96 1015.5
20260508051629 22 294 0.0 6.4 0.03 0.03 0.03 96 1014.9
20260508051600 22 0 0.0 4.8 0.03 0.05 0.03 95 1015.0
20260508051354 22 294 0.0 6.4 0.03 0.03 0.03 96 1014.4
20260508050629 22 309 1.6 6.4 0.00 0.03 0.00 96 1013.6
20260508050129 22 134 0.0 1.6 0.03 0.03 0.00 96 1013.7
20260508050054 21 0 0.0 3.2 0.03 0.03 0.00 95 1014.0
20260508045629 22 333 0.0 4.8 0.03 0.00 0.03 96 1014.1
20260508045129 22 44 0.0 4.8 0.03 0.00 0.03 96 1014.1
20260508044629 22 107 0.0 3.2 0.03 0.00 0.03 95 1014.3
20260508044552 21 0 0.0 3.2 0.03 0.03 0.03 95 1014.5
20260508044129 22 240 0.0 3.2 0.03 0.00 0.03 95 1014.3
20260508043628 22 148 0.0 4.8 0.03 0.00 0.03 95 1014.0
20260508043131 22 289 0.0 4.8 0.03 0.00 0.03 94 1013.6
20260508043056 21 249 0.0 4.8 0.03 0.03 0.03 94 1013.7
20260508042631 22 176 0.0 3.2 0.03 0.00 0.03 94 1013.5
20260508042130 22 77 0.0 0.0 0.03 0.00 0.03 94 1013.9
20260508041630 22 229 0.0 1.6 0.03 0.00 0.03 93 1014.0
20260508041551 22 0 0.0 1.6 0.03 0.03 0.03 93 1014.2
20260508041130 22 156 0.0 1.6 0.03 0.00 0.03 93 1013.9
20260508040629 22 27 0.0 0.0 0.03 0.00 0.03 92 1014.4
20260508040351 22 27 0.0 0.0 0.00 0.00 0.00 92 1014.6
20260508040055 22 0 0.0 3.2 0.00 0.00 0.00 91 1014.6